GEFSSE_500_meanwind_138.txt.gz
Wind_Speed
2 2 2 2 3 5 6 7 8 8 8 8 8 8 8 8 8 8 7 6 6 6 5 6 6 6 6 6 6 6 6 6 6 6 6 6 6 6 7 7 8 8 8
4 3 3 3 4 5 6 7 7 7 7 7 7 7 7 7 7 7 7 6 6 6 6 6 6 6 6 6 6 6 6 6 6 6 6 6 7 7 7 7 8 8 8
6 5 5 5 5 5 6 6 6 6 6 6 6 6 6 6 6 6 6 6 6 6 6 6 6 5 5 5 6 6 6 6 6 6 6 6 7 7 7 7 7 8 8
7 7 6 6 6 6 6 6 6 5 5 5 5 5 5 5 5 6 6 5 5 5 5 5 5 5 5 5 5 5 5 5 6 6 6 6 6 6 7 7 7 8 8
8 9 8 7 7 7 6 6 5 4 4 4 4 4 4 4 4 4 5 5 5 4 5 5 4 4 4 4 4 4 4 5 5 5 5 5 5 5 5 6 7 8 8
9 9 9 8 8 8 7 6 5 4 3 3 2 2 2 2 3 4 4 4 4 4 4 4 4 4 3 3 3 3 3 3 4 4 5 5 5 4 4 5 5 6 6
9 10 10 9 9 8 8 7 6 4 4 2 1 1 1 2 2 3 4 4 4 4 4 4 4 4 3 2 2 2 2 2 3 3 4 4 4 4 4 4 4 5 5
10 11 11 10 9 9 8 8 6 5 4 3 2 1 1 1 2 3 3 4 4 4 4 4 4 3 3 1 1 1 1 1 1 1 2 3 3 4 3 3 4 4 4
10 11 12 11 11 11 10 9 8 7 5 4 3 2 2 2 3 3 4 4 4 4 4 4 3 3 2 1 0 0 0 1 0 1 2 2 3 3 3 2 3 3 3
12 13 13 13 13 12 12 10 9 8 7 5 4 3 3 3 4 4 4 4 4 5 4 4 3 3 2 2 2 2 1 1 1 1 1 1 2 2 2 2 2 2 2
12 12 12 13 15 14 13 12 10 9 8 7 5 5 5 5 5 5 5 5 5 4 4 4 3 3 3 3 3 3 2 2 2 2 2 2 1 2 2 2 2 2 2
12 13 13 14 15 15 15 14 12 11 9 8 7 6 6 6 6 7 6 6 6 5 5 5 4 4 4 4 4 4 4 4 4 4 3 3 3 3 3 3 4 4 3
12 13 15 15 15 15 16 16 14 12 11 10 9 8 7 7 7 7 7 6 6 6 5 5 5 5 5 5 5 5 5 5 5 5 5 5 4 4 4 4 5 5 5
11 13 15 15 15 16 17 16 16 14 12 11 11 9 8 8 7 6 7 6 6 6 6 5 5 5 6 6 6 6 6 6 6 6 6 6 5 5 5 6 6 6 7
10 12 14 15 15 15 16 16 15 15 14 13 11 10 10 9 8 8 7 7 7 7 6 6 6 5 5 5 5 6 6 6 6 6 6 6 6 6 6 7 7 7 8
10 13 16 16 16 16 17 17 15 15 15 14 13 12 10 10 8 7 6 7 7 7 6 6 6 6 5 5 5 5 5 5 5 5 6 7 7 7 7 7 7 7 8
12 13 16 18 18 17 17 17 16 17 15 15 14 13 11 10 9 7 6 6 6 6 5 4 4 4 4 5 5 5 5 5 5 5 5 6 6 7 7 7 8 8 8
12 14 16 17 19 18 17 18 18 18 17 17 16 14 13 11 9 8 7 7 6 5 4 3 3 3 4 4 4 5 5 5 5 5 5 5 6 6 6 7 8 8 8
12 12 13 16 18 19 18 18 19 18 18 18 17 15 14 12 10 8 8 7 5 5 4 4 3 3 3 3 4 4 4 5 5 5 5 5 5 6 7 7 8 9 9
12 13 13 16 19 18 18 18 18 18 18 18 17 15 13 11 10 9 8 8 6 5 4 4 3 3 2 2 2 3 3 4 4 5 5 5 6 7 7 7 8 9 9
12 13 14 17 18 18 18 17 17 18 18 16 15 14 13 12 11 10 9 8 6 5 5 4 3 3 2 1 1 1 2 3 3 4 4 4 5 6 7 8 8 8 8
9 11 13 15 18 19 18 17 17 17 17 16 16 15 13 12 12 11 10 9 8 6 5 4 4 3 2 1 2 2 2 2 2 3 3 4 5 6 6 7 8 8 9
9 10 12 15 17 19 19 18 17 17 17 17 16 15 14 13 12 12 11 10 9 7 6 5 4 3 2 2 2 2 2 2 2 3 4 5 6 6 7 7 7 8 9
10 10 12 14 16 18 18 17 17 17 17 17 16 15 15 14 12 12 12 10 9 8 6 6 5 4 3 2 2 1 1 1 2 3 4 5 5 6 7 7 8 8 9
8 10 12 13 15 17 18 18 18 18 18 17 16 16 16 15 13 13 12 11 10 8 7 6 5 4 3 2 2 1 1 2 3 4 4 5 6 6 7 7 8 9 9
8 10 12 13 15 16 18 18 18 19 18 17 17 17 16 15 14 14 13 12 10 9 8 6 5 4 3 3 2 2 3 3 4 4 5 6 6 6 7 8 9 10 10

GEFSSE_500_meanwind_144.txt.gz
Wind_Speed
4 5 6 6 6 7 7 8 10 11 12 12 12 13 13 12 12 11 11 10 10 9 9 8 8 8 7 7 7 7 6 6 6 5 5 5 6 6 6 6 6 6 6
4 5 6 6 6 7 7 8 9 10 11 11 11 12 12 11 11 11 10 10 9 9 8 8 7 7 7 7 7 7 6 6 6 6 6 6 6 6 6 6 6 6 6
5 6 6 7 7 7 7 8 9 10 10 10 11 10 10 10 10 10 9 9 8 8 8 7 7 7 6 6 7 7 6 6 6 6 6 6 6 6 6 6 6 6 6
5 6 7 7 7 8 8 9 9 9 9 10 10 9 9 9 9 9 8 8 7 7 7 7 7 6 6 6 6 6 6 6 6 6 6 6 6 6 5 5 5 5 5
6 7 8 8 8 9 9 9 9 9 9 9 9 9 9 8 8 8 7 7 6 6 6 6 6 6 5 5 6 6 6 6 6 6 6 5 5 5 5 5 5 5 5
6 7 8 9 9 10 10 10 10 10 10 9 9 8 8 8 7 7 7 6 6 5 5 5 5 5 5 5 5 5 5 5 5 5 5 5 5 4 4 4 4 4 4
7 8 9 10 11 11 12 12 11 10 10 9 9 8 8 7 7 6 6 5 5 5 4 4 4 4 4 5 5 4 4 4 4 4 5 5 4 4 4 4 3 4 3
8 9 10 11 12 13 13 13 12 11 10 10 9 8 8 7 6 6 5 5 4 4 4 4 3 4 4 5 4 4 4 4 4 4 4 4 4 4 3 3 3 3 3
8 11 12 12 12 14 14 14 13 12 11 10 9 9 8 7 6 5 5 4 4 4 3 3 3 3 4 5 4 4 4 4 3 3 3 4 4 4 4 4 4 3 3
9 11 13 13 14 14 15 15 14 12 12 11 10 9 8 7 6 5 5 4 4 3 3 3 3 3 4 5 4 4 4 4 3 3 4 4 4 4 4 4 4 4 3
9 11 13 13 15 16 16 16 15 14 13 12 11 10 8 7 6 6 5 4 4 4 4 4 4 4 4 5 5 5 5 4 4 4 4 4 4 4 4 5 4 4 4
10 12 13 14 17 17 17 17 17 15 14 12 11 10 9 8 7 7 6 5 4 4 4 4 5 5 5 5 5 5 5 5 4 4 4 4 5 5 5 5 5 5 5
11 12 13 15 18 19 19 18 18 17 15 14 12 11 9 8 8 7 6 6 4 4 4 5 5 5 5 5 5 5 5 5 5 5 5 5 6 6 6 6 6 6 6
12 13 14 15 18 19 19 19 19 18 17 16 14 12 10 9 8 7 7 6 5 5 4 5 5 5 5 5 5 6 6 6 6 6 6 6 6 6 7 7 7 7 6
13 14 14 15 18 19 19 19 20 20 18 17 15 13 11 10 9 8 8 7 6 6 5 5 5 5 6 6 5 5 6 6 6 7 7 7 7 7 8 8 8 8 8
13 14 15 16 17 19 20 20 21 21 20 17 16 14 12 10 9 9 9 8 8 7 6 6 6 6 6 6 6 5 6 6 6 7 7 7 7 7 8 7 8 8 8
13 15 16 17 18 19 20 21 21 22 21 19 17 15 14 12 10 10 8 8 8 7 7 6 6 6 6 5 5 5 5 6 7 7 7 7 7 7 8 8 8 8 7
13 15 16 17 19 20 21 22 22 22 21 19 17 16 15 13 11 10 9 8 8 7 6 6 6 6 6 5 5 5 5 6 6 7 7 7 7 7 7 8 8 8 7
14 15 16 17 20 21 21 22 23 22 21 19 18 16 15 13 12 10 10 9 8 7 7 6 6 5 5 5 5 5 5 5 6 6 6 7 7 7 7 7 7 8 8
14 16 16 18 20 20 21 22 23 22 21 20 18 16 15 14 13 11 10 10 9 8 7 6 6 6 5 4 4 3 4 4 4 5 6 6 6 7 7 7 8 8 8
14 15 16 18 19 19 19 21 22 22 21 20 19 17 16 15 13 12 11 11 10 9 8 7 7 6 5 4 4 3 3 3 3 4 4 5 5 5 6 7 7 8 8
14 15 16 17 19 19 19 20 22 21 20 19 19 18 17 15 14 13 12 12 11 10 8 8 7 6 5 4 3 3 2 2 2 3 3 4 5 5 5 6 6 6 7
12 14 15 16 18 19 20 20 22 21 19 19 18 18 17 16 15 14 13 13 12 10 9 9 8 7 6 5 4 3 2 2 2 3 3 3 4 4 5 6 6 7 7
12 12 15 16 17 18 19 19 20 20 20 20 18 18 17 17 16 15 14 13 12 11 10 9 8 8 7 5 4 3 3 2 2 2 3 3 4 4 6 6 7 7 7
11 11 12 15 16 18 19 19 19 20 20 21 20 19 18 17 17 16 15 14 13 12 11 10 9 8 7 6 5 4 3 3 2 3 3 4 4 5 6 6 7 7 8
9 10 11 13 16 17 18 18 19 19 20 21 20 20 19 18 17 16 16 15 14 13 12 11 10 9 8 6 5 4 3 3 4 4 4 5 5 6 7 7 8 8 9

GEFSSE_500_meanwind_150.txt.gz
Wind_Speed
4 5 5 5 6 6 6 6 6 6 7 8 9 9 9 9 9 9 9 9 9 9 9 8 8 7 7 6 6 6 6 6 6 6 6 6 6 7 7 7 7 7 8
4 5 5 6 6 6 6 6 6 6 6 7 8 8 7 8 8 8 8 8 8 8 8 7 7 6 6 5 5 6 6 6 6 6 6 6 6 7 7 7 7 8 8
5 5 6 7 6 6 6 6 6 6 6 6 7 7 6 7 7 7 7 7 7 7 7 7 6 6 5 5 5 6 6 6 6 6 6 6 6 7 7 7 7 7 7
6 6 7 7 7 7 6 6 7 7 6 6 6 6 5 5 6 6 7 6 6 5 5 5 5 5 5 5 5 6 5 5 6 6 6 6 6 7 7 6 6 7 7
7 7 8 8 8 8 7 7 7 7 7 6 6 5 5 5 5 5 5 5 4 4 4 4 4 4 5 5 5 5 5 5 5 6 5 5 6 6 6 6 6 6 6
8 9 9 9 9 9 8 8 8 8 7 7 6 6 5 5 4 4 4 4 4 3 3 4 4 4 4 4 4 5 4 4 4 4 5 5 5 5 5 5 5 5 5
9 10 9 10 10 10 10 10 9 9 8 8 7 6 6 5 4 4 3 3 3 3 3 3 3 4 4 4 4 4 4 4 3 3 4 4 4 4 4 4 4 4 4
8 10 10 10 10 11 11 11 10 10 9 9 8 7 7 6 5 4 3 3 3 3 3 2 3 3 3 3 3 3 3 3 3 2 2 3 3 3 3 3 3 2 3
9 9 11 11 11 11 12 12 11 11 10 10 9 8 7 7 6 4 4 3 3 3 2 2 3 3 3 3 3 3 3 2 2 1 1 1 2 1 1 2 2 2 2
9 10 10 11 12 12 12 13 13 12 12 11 10 10 8 7 6 5 5 4 4 3 3 3 3 3 3 3 2 2 2 2 1 1 1 0 0 0 0 1 1 1 2
9 10 11 12 12 13 13 14 13 13 12 12 11 10 10 8 7 6 6 5 4 4 4 3 3 3 3 3 3 3 2 2 1 1 1 1 1 0 1 1 2 2 2
11 11 12 13 13 13 14 15 14 14 13 13 12 12 11 10 8 7 7 6 5 5 4 4 4 4 4 4 3 3 3 2 1 1 1 1 1 2 2 2 3 3 3
12 12 13 14 14 14 15 16 15 15 15 14 14 13 12 11 9 8 8 7 6 6 5 5 5 5 5 5 4 4 3 3 2 2 3 2 2 3 3 3 3 4 4
12 13 14 15 15 15 16 17 17 17 16 15 14 14 13 12 10 9 9 9 8 7 6 6 6 6 6 5 5 4 4 3 3 3 3 4 4 4 4 4 5 5 6
13 13 13 15 16 16 16 16 17 18 17 16 15 15 14 12 11 10 10 9 9 8 7 6 6 6 6 6 5 4 4 4 3 4 4 5 5 5 5 5 5 6 6
14 13 13 14 15 15 17 17 17 18 18 17 16 15 14 13 11 10 10 10 9 8 7 7 7 6 6 5 5 5 4 4 4 5 5 5 5 5 5 5 6 6 6
14 14 14 15 16 15 16 17 18 18 18 18 17 16 14 14 13 11 10 10 10 9 8 7 7 7 6 5 5 4 4 4 4 5 5 5 5 5 5 5 6 6 5
15 15 15 15 16 17 16 17 17 17 17 18 18 17 16 14 14 12 10 10 9 9 8 7 7 7 6 5 4 4 4 4 4 4 5 5 5 5 5 6 6 6 5
15 15 16 16 16 17 17 17 18 17 17 17 18 18 16 15 14 13 11 10 9 9 8 7 7 6 6 5 4 4 4 4 4 4 4 4 5 5 5 6 6 5 5
15 15 15 16 17 17 17 17 18 17 17 17 17 18 17 15 14 13 12 11 10 9 8 7 7 6 5 5 4 4 4 4 3 3 4 4 4 4 5 5 5 5 5
14 13 14 15 16 17 16 17 17 17 17 17 17 17 17 16 14 14 13 12 11 10 9 8 7 6 5 5 4 3 2 2 2 2 3 3 3 4 4 4 4 4 5
14 13 13 14 15 16 16 17 18 17 16 15 17 17 17 16 15 14 14 13 12 11 10 9 8 7 6 5 4 3 2 1 1 2 2 3 4 4 4 4 3 4 4
13 12 14 15 15 15 15 16 18 17 16 15 16 17 17 17 17 16 15 14 13 12 11 10 9 7 6 5 4 3 2 2 1 1 2 3 4 4 4 4 4 5 5
12 12 13 13 14 14 14 15 17 17 17 17 16 17 18 17 16 16 15 15 13 12 11 10 9 8 7 5 4 3 2 2 1 1 2 3 4 4 4 5 5 6 6
10 10 11 12 12 13 14 15 17 17 17 17 16 17 18 18 16 16 15 15 13 12 11 10 9 8 7 6 5 4 3 3 2 2 3 3 4 4 5 5 5 6 6
10 9 10 11 12 12 13 14 16 17 17 17 16 17 18 18 18 17 16 15 14 13 12 11 10 9 8 7 6 5 4 3 3 3 4 4 4 5 5 5 6 6 7

GEFSSE_500_meanwind_156.txt.gz
Wind_Speed
2 2 3 4 4 4 4 3 3 3 3 3 3 4 4 4 5 5 6 6 6 7 7 7 7 6 6 6 6 6 6 7 7 7 7 7 8 8 8 8 8 8 8
1 1 2 3 3 3 3 3 2 2 2 2 3 3 3 4 4 5 5 5 5 6 6 6 5 5 6 6 6 6 6 7 7 7 8 8 8 8 8 9 9 9 9
1 1 2 2 3 3 3 3 2 2 2 2 2 2 2 3 3 4 4 5 5 5 5 4 5 5 5 5 5 6 6 6 7 7 8 8 8 8 9 9 9 9 9
1 2 3 3 3 3 3 3 2 2 2 2 1 1 2 2 3 3 3 3 3 3 3 4 4 4 5 5 5 5 6 6 6 7 7 8 8 8 8 9 9 9 9
1 2 4 4 4 4 4 3 3 2 2 1 1 0 1 1 2 2 2 2 2 2 2 3 3 3 4 4 4 4 5 5 6 6 7 7 7 7 8 8 8 8 8
1 2 4 5 5 5 5 4 3 3 2 2 2 1 1 1 1 1 1 0 1 1 1 2 2 2 2 3 3 4 5 5 5 6 6 6 6 7 7 7 7 7 7
1 2 4 5 6 6 6 6 5 4 3 3 3 2 2 1 1 1 1 1 0 0 1 1 1 1 1 2 3 3 4 4 5 4 4 5 5 5 6 6 6 6 6
2 2 5 6 6 7 7 7 6 5 4 4 4 3 3 2 2 1 1 1 1 1 1 0 1 1 1 2 2 3 3 3 3 3 3 4 4 4 5 5 5 5 5
3 3 5 6 7 8 8 8 7 6 6 5 4 4 4 3 2 2 2 1 1 1 1 0 0 1 2 2 2 2 2 2 3 3 3 3 3 3 4 4 4 4 4
4 4 5 6 7 8 8 8 8 7 6 6 5 4 4 4 3 2 2 2 2 2 1 1 0 1 2 2 2 2 2 2 2 1 2 2 2 2 3 3 3 3 3
5 5 6 7 7 8 9 9 9 8 7 7 6 5 5 4 4 3 3 2 2 2 2 1 1 1 2 2 2 2 2 2 2 1 1 1 1 2 2 3 2 2 3
6 6 7 8 8 9 10 10 9 9 8 8 7 6 6 5 5 4 4 3 3 3 2 2 2 2 2 2 2 2 2 1 1 0 1 1 1 1 2 2 1 2 2
7 7 8 9 10 10 10 11 10 10 9 9 9 7 7 7 6 5 5 5 4 4 3 3 3 2 2 2 2 3 2 2 1 0 1 1 1 1 1 1 1 1 1
7 6 7 9 9 10 11 11 11 11 11 11 10 9 7 7 7 7 7 6 5 5 4 3 3 3 3 3 3 3 3 3 2 1 1 0 1 1 1 1 1 1 1
7 8 8 9 10 11 12 11 11 11 12 12 12 10 9 8 8 8 8 7 6 5 5 4 4 4 4 3 3 4 4 4 3 2 1 1 1 2 2 2 2 2 2
8 9 9 9 11 12 12 12 12 12 12 12 12 12 11 10 10 9 8 8 7 6 6 5 5 5 5 4 4 3 3 3 3 3 2 2 2 3 3 3 2 1 1
9 10 10 10 11 13 13 13 12 12 12 12 13 13 12 11 11 10 9 9 8 7 7 7 6 6 6 5 5 5 4 4 3 3 3 3 3 3 3 2 2 2 2
9 10 10 10 11 12 13 14 13 13 13 13 12 13 13 12 11 10 10 9 9 8 8 7 7 7 6 6 5 5 4 4 3 3 3 3 3 2 2 2 2 2 3
10 10 11 10 11 12 12 13 14 14 15 14 13 13 13 13 12 11 10 9 9 9 9 8 8 8 7 6 5 4 4 4 3 3 3 3 2 2 1 1 1 2 2
11 12 11 11 12 13 13 13 14 15 15 15 13 13 14 13 13 12 11 10 9 9 9 8 8 8 7 6 5 5 4 4 3 3 2 2 1 1 1 1 2 2 1
11 11 12 12 13 13 14 14 15 15 16 15 14 14 14 14 13 13 12 11 10 10 10 9 9 8 7 6 6 5 5 4 4 2 2 1 1 0 0 1 2 2 2
12 12 13 13 13 14 14 15 16 16 16 15 15 14 15 15 15 14 14 13 12 11 11 10 9 9 8 7 7 6 5 4 4 3 2 2 1 1 0 1 1 1 2
12 13 13 13 13 14 14 15 15 16 16 15 14 14 15 16 15 14 14 14 13 12 12 11 10 10 9 8 7 6 6 5 5 3 2 2 1 0 0 1 1 1 1
13 13 12 13 13 14 15 13 14 15 16 15 15 16 15 15 15 15 14 14 13 13 12 12 12 11 10 8 8 7 7 6 5 5 3 2 1 1 0 1 1 1 1
12 11 11 11 11 12 13 13 14 16 16 16 16 17 16 16 15 16 15 15 14 14 13 13 13 12 11 10 10 9 8 7 6 6 5 3 2 1 1 1 1 1 2
11 10 10 10 10 11 12 12 13 15 16 16 16 16 17 16 16 15 15 15 16 15 15 14 13 13 13 12 11 10 9 8 7 6 6 5 4 3 3 3 3 3 3

GEFSSE_500_meanwind_162.txt.gz
Wind_Speed
4 4 4 5 6 7 9 10 10 10 9 9 9 9 9 8 8 8 8 7 7 7 6 6 6 6 7 7 7 7 7 7 7 7 7 7 7 7 7 8 8 8 8
3 3 3 4 5 7 8 9 10 9 9 9 9 9 9 8 8 7 7 6 6 5 6 6 6 6 6 6 7 7 7 7 7 7 7 7 8 8 8 8 8 9 9
2 2 2 3 4 6 7 8 9 9 9 8 8 8 8 8 7 7 7 6 6 5 5 5 5 5 5 6 6 6 6 7 7 7 7 7 8 8 8 8 8 8 8
1 1 2 3 4 5 6 7 8 8 8 7 7 8 7 7 8 7 6 6 5 5 5 5 5 5 5 6 6 6 6 6 7 7 7 7 8 8 8 8 8 8 8
2 1 2 3 4 5 6 6 7 7 6 6 6 7 7 6 7 7 6 6 5 5 5 5 5 5 5 5 5 5 5 6 6 6 7 7 7 7 7 7 8 8 8
1 2 2 3 3 4 5 5 6 6 6 6 6 6 6 6 6 6 6 6 5 5 5 5 5 4 4 5 5 5 5 6 6 6 6 6 6 7 6 6 6 7 7
1 2 2 3 3 3 4 5 5 5 5 6 6 6 6 5 4 5 5 6 5 5 4 4 4 4 4 4 4 4 5 6 6 6 5 6 6 6 5 5 5 6 6
1 2 2 3 3 3 3 4 4 4 4 5 5 5 5 4 3 4 5 4 4 4 4 3 3 3 3 3 3 4 4 5 5 5 5 5 5 5 5 4 4 5 5
2 2 3 3 4 4 3 4 4 4 3 3 4 4 4 3 3 3 4 3 3 3 3 3 2 2 2 3 3 3 4 5 5 4 4 4 4 4 4 4 4 4 4
2 2 3 4 4 4 4 4 4 4 4 3 3 3 3 3 3 2 3 3 3 2 2 2 2 2 2 2 2 3 4 4 4 3 4 4 3 3 3 3 3 3 3
3 2 2 4 4 5 5 5 4 4 4 4 3 3 3 3 2 2 2 2 2 2 1 1 1 2 2 2 2 3 3 3 3 2 2 2 2 3 2 2 2 2 2
4 3 3 4 4 5 6 6 5 5 5 4 4 4 4 3 3 2 2 1 1 1 1 1 1 2 1 2 2 2 2 2 2 2 2 2 2 2 2 1 1 1 1
4 4 4 5 5 5 5 7 7 6 6 5 5 4 4 4 4 3 2 1 1 0 1 1 2 2 2 1 1 1 1 1 0 1 1 1 1 0 0 0 0 1 1
5 4 5 5 5 6 6 7 8 7 7 6 6 6 5 5 5 4 3 2 2 1 1 2 2 2 2 2 1 1 1 1 1 0 0 1 1 1 1 1 1 1 1
6 6 6 6 6 6 7 8 8 8 8 8 8 8 7 7 6 5 5 4 3 3 3 2 3 3 3 2 2 2 2 2 2 1 1 1 1 1 1 1 1 2 2
7 7 7 7 8 8 8 8 9 9 9 8 8 9 9 9 8 6 5 5 5 4 4 4 4 4 3 3 3 2 2 2 3 2 1 1 1 1 1 2 2 2 2
8 8 7 8 8 9 9 9 9 10 10 10 10 9 10 10 9 8 7 6 6 5 5 5 4 4 4 4 3 3 3 2 2 2 2 2 2 2 2 2 2 2 2
10 9 9 9 9 10 10 10 11 10 11 11 12 11 11 11 11 10 9 8 7 7 7 6 5 5 5 4 4 4 4 3 3 2 2 2 3 3 3 2 2 2 2
11 10 10 10 10 11 11 11 12 12 12 12 12 12 12 12 11 11 11 10 8 8 8 8 7 7 6 5 4 4 4 3 3 3 2 2 2 2 2 1 1 2 2
11 12 11 12 11 11 13 13 13 14 13 13 13 13 13 12 12 12 12 10 10 9 9 9 8 8 7 6 5 5 5 4 4 3 2 2 2 2 2 2 2 2 3
12 12 12 12 12 12 12 13 14 15 15 15 14 14 14 14 13 13 13 11 10 9 9 9 9 9 8 7 6 6 6 5 4 4 3 3 2 3 3 3 3 3 3
13 13 13 14 14 14 14 14 15 16 17 17 16 15 15 15 14 14 14 12 11 11 10 10 10 10 10 9 8 7 6 6 4 4 4 3 2 2 3 3 3 3 3
13 14 14 14 15 15 16 16 16 17 18 17 16 16 17 15 15 15 15 14 13 12 11 11 12 12 11 10 9 8 8 7 6 5 5 4 3 3 3 3 3 3 3
14 15 15 15 16 16 17 16 17 17 19 19 17 17 17 17 15 15 15 15 14 14 14 13 13 13 12 11 10 10 9 8 7 7 6 4 4 3 3 3 3 4 4
14 15 16 17 17 16 16 16 16 18 19 20 19 18 17 17 17 16 16 17 16 16 15 15 15 14 13 13 12 11 11 10 10 8 7 6 5 5 4 4 4 4 4
14 15 16 17 16 16 16 15 16 17 19 19 19 18 18 18 18 18 18 18 18 18 17 17 16 16 15 14 14 13 12 12 11 10 9 8 7 7 6 5 5 5 5

GEFSSE_500_meanwind_168.txt.gz
Wind_Speed
9 10 10 9 9 10 11 12 13 14 15 15 15 14 14 14 13 12 12 11 11 10 9 8 8 8 8 8 7 7 7 6 6 6 7 6 6 6 6 6 6 6 6
8 10 9 9 9 9 10 11 13 14 14 14 14 14 13 13 12 12 11 10 10 9 8 8 8 8 7 7 7 7 7 6 6 6 7 7 6 6 6 6 6 6 6
8 9 9 8 8 9 10 11 12 13 13 13 13 13 13 12 12 11 10 10 9 9 8 8 8 8 7 7 7 7 7 6 6 6 6 6 6 6 6 6 5 6 6
8 8 9 8 8 8 9 10 11 12 12 13 12 12 12 12 11 10 10 9 9 8 8 8 8 7 7 7 7 6 6 6 6 6 6 6 6 6 5 5 5 5 6
7 7 8 8 8 8 9 10 11 11 12 12 12 11 11 11 10 10 9 9 9 9 8 7 7 7 7 7 6 6 6 6 6 6 6 6 6 6 5 6 6 5 6
5 6 7 7 8 9 9 10 10 11 11 11 11 11 11 11 10 9 9 8 8 8 8 7 7 7 7 6 6 6 5 6 6 6 5 5 5 5 5 6 6 5 5
5 5 7 7 7 8 9 9 10 10 10 10 10 10 11 11 10 9 8 8 7 7 7 7 7 6 6 6 6 5 5 5 5 5 5 5 5 5 5 5 5 5 5
4 5 6 7 7 8 9 9 9 9 10 10 10 10 10 9 9 8 8 7 7 7 6 6 6 6 5 5 5 5 5 5 5 4 5 5 4 4 4 4 4 4 4
4 5 5 6 7 8 8 9 9 9 9 9 9 9 9 8 8 8 7 7 7 6 6 5 5 5 5 4 4 4 5 5 4 4 4 4 4 4 4 3 3 3 3
3 4 5 6 7 7 8 8 8 8 8 8 8 9 9 9 8 7 7 6 6 6 5 5 5 5 5 4 4 4 4 4 4 4 3 3 3 3 3 3 3 2 2
2 3 5 6 7 7 8 8 8 9 8 8 8 8 9 8 8 7 7 6 6 6 5 5 5 4 4 4 4 4 4 3 3 3 3 3 3 2 2 2 1 1 1
2 3 4 6 7 8 8 8 8 9 8 8 8 8 8 8 8 7 6 6 6 5 5 5 5 4 4 4 4 3 3 3 3 2 2 1 1 1 1 0 0 0 0
2 3 4 6 7 7 8 8 8 8 8 8 7 7 8 8 7 7 6 6 6 5 5 5 5 5 4 4 4 3 3 3 2 1 1 1 1 1 1 1 1 1 1
3 4 5 6 7 7 8 9 9 8 8 8 8 7 8 8 8 7 6 6 6 6 5 5 5 5 5 5 4 3 3 2 2 1 1 0 0 1 1 1 1 1 1
4 5 5 7 7 8 9 9 9 9 9 8 8 8 9 9 9 8 7 7 7 6 6 5 5 5 5 4 4 3 3 2 2 1 1 1 1 1 1 2 2 3 2
5 6 6 7 8 9 9 9 9 10 10 9 9 9 10 10 10 9 8 7 7 7 7 6 6 6 6 5 4 4 3 2 2 2 2 1 1 1 2 2 2 3 3
7 7 7 8 9 9 9 10 10 10 11 10 10 10 11 11 11 10 9 8 8 8 8 7 7 6 6 6 5 4 4 3 3 3 2 2 1 2 2 2 2 2 3
9 9 9 9 10 10 10 11 10 11 11 11 11 12 12 13 12 11 10 9 9 9 9 9 8 7 7 7 6 5 5 4 4 3 3 2 2 2 2 2 2 2 3
8 9 9 9 10 10 11 12 12 12 12 12 12 12 12 13 13 12 11 11 10 9 10 10 9 8 8 7 7 6 5 5 4 4 3 3 2 2 3 3 3 3 3
9 9 10 10 10 10 11 13 13 13 13 13 14 13 13 13 13 12 12 12 12 11 11 11 10 9 9 8 7 6 6 5 5 5 4 3 3 3 3 3 3 3 3
11 11 10 11 11 11 12 13 14 14 15 15 15 15 14 15 14 14 13 13 12 12 11 12 11 10 9 9 8 7 6 6 6 5 5 4 3 3 3 3 3 3 4
10 11 10 10 11 12 13 14 15 16 17 17 17 16 16 16 16 15 14 14 14 13 13 13 12 12 10 10 9 8 7 6 5 6 5 5 4 4 4 4 4 4 4
11 11 12 12 12 13 13 14 15 16 17 18 17 17 17 17 17 17 16 15 14 14 14 14 14 14 12 11 10 10 9 8 7 6 6 5 5 4 4 4 4 4 4
12 13 13 13 13 14 14 14 15 16 18 19 20 19 19 19 18 18 17 16 15 15 15 15 15 15 14 13 12 11 11 10 9 8 7 7 6 5 4 4 5 5 5
13 13 13 14 15 16 17 17 17 18 18 19 21 22 22 21 19 18 17 17 16 15 15 15 16 15 15 15 14 13 13 12 11 10 9 9 8 7 6 6 6 6 6
14 14 14 15 15 15 16 16 17 19 19 19 19 20 21 21 21 20 18 17 16 15 16 16 16 17 16 16 16 15 14 14 13 12 11 11 10 9 9 8 8 7 7

GEFSSE_500_meanwind_174.txt.gz
Wind_Speed
8 9 9 9 8 7 7 8 8 9 10 11 11 12 12 12 12 11 11 11 11 10 10 9 9 8 8 8 8 8 8 8 8 7 7 7 7 7 7 7 7 8 7
6 7 8 8 7 7 6 7 7 8 9 10 11 11 11 11 11 10 10 9 9 9 9 9 8 8 8 7 8 8 8 8 8 7 7 7 7 7 7 7 7 7 7
5 6 6 7 6 5 5 6 7 8 8 9 9 10 10 9 9 9 9 9 8 8 8 8 7 7 7 7 8 8 8 8 8 7 7 7 7 7 7 7 6 7 7
5 5 6 6 5 4 4 5 6 6 7 8 8 8 8 9 9 9 9 8 8 8 7 7 7 7 7 7 7 7 7 8 7 7 6 6 6 7 7 7 6 6 7
4 5 5 5 5 4 4 4 5 5 6 6 6 7 7 8 8 9 8 8 8 7 7 7 7 7 6 6 6 7 7 7 6 6 7 6 6 7 7 7 7 7 7
4 5 5 5 5 5 4 4 5 5 5 5 6 6 7 7 7 8 7 7 7 7 6 5 5 6 6 6 6 6 6 6 6 6 6 6 6 7 7 7 7 7 6
4 5 5 4 4 4 4 4 4 4 5 5 5 6 6 7 7 7 7 7 6 6 6 5 5 5 6 6 6 6 6 6 5 5 6 6 6 7 7 6 6 6 6
3 4 4 4 4 4 4 4 4 5 5 5 5 5 5 6 6 6 6 6 5 5 5 5 5 5 5 5 5 5 5 5 5 5 5 6 6 6 6 6 6 6 6
3 3 4 4 4 4 5 5 5 5 5 5 5 5 5 5 5 5 5 5 5 5 5 5 5 5 5 5 4 4 4 5 5 5 5 5 6 6 6 6 6 6 5
1 2 4 4 4 4 5 5 5 5 5 5 5 5 5 5 4 4 4 4 4 4 4 3 3 3 3 4 3 3 3 4 4 4 4 5 5 5 5 5 5 5 5
2 2 4 4 4 4 5 6 6 6 6 6 5 5 5 5 4 4 3 3 3 3 3 3 2 2 2 2 2 3 3 3 3 4 4 4 4 3 4 4 4 4 4
2 3 4 5 5 5 5 6 6 6 6 6 6 6 6 5 4 4 3 3 3 3 3 2 2 2 1 1 2 2 2 2 3 3 3 3 3 3 3 3 3 4 4
3 3 4 5 5 6 6 6 6 6 6 6 7 7 6 5 5 5 4 4 3 3 3 3 2 2 1 1 1 1 1 1 2 2 2 3 2 2 3 3 2 3 3
5 4 4 5 5 6 7 7 6 6 6 6 6 7 6 6 6 5 5 4 4 4 3 3 3 2 2 2 1 1 1 0 0 1 2 2 2 2 2 2 2 2 2
6 5 5 5 6 7 7 8 7 7 7 7 7 7 6 6 6 5 5 5 5 5 4 4 3 3 3 3 3 2 1 1 1 1 1 2 2 2 2 2 2 2 2
6 6 6 6 6 7 8 8 8 8 7 7 7 7 7 7 7 7 6 6 6 6 5 5 4 4 3 3 3 3 2 2 2 1 1 1 1 2 2 3 3 2 2
7 7 7 8 8 8 9 9 9 8 8 8 8 8 8 8 8 8 8 7 6 6 6 6 6 5 5 4 4 4 3 3 3 2 1 1 1 1 2 2 3 3 3
8 8 9 9 9 9 9 9 9 9 9 9 9 9 9 10 9 9 9 8 7 7 7 7 7 6 5 5 4 4 4 3 3 2 2 1 1 1 2 2 3 3 3
9 10 10 10 10 10 10 10 10 10 9 10 10 10 10 10 10 10 10 10 9 8 7 8 8 7 7 6 5 5 4 4 3 3 2 2 2 2 2 3 3 3 3
11 11 10 9 9 10 10 11 11 11 11 11 11 11 11 11 11 11 11 11 11 9 9 8 8 8 8 7 6 5 5 4 4 3 3 3 3 3 3 3 3 3 3
11 11 10 10 10 10 10 11 11 12 12 11 11 11 12 12 12 12 12 11 11 10 10 9 9 9 9 8 7 6 6 5 4 4 4 4 4 4 3 3 3 3 4
12 12 11 10 10 11 11 11 11 11 12 12 12 12 12 12 13 13 13 12 12 11 11 10 10 10 9 9 9 8 7 6 5 4 4 5 5 4 4 3 4 4 4
12 11 11 10 11 11 11 11 12 12 12 13 13 13 14 14 15 14 14 14 14 13 13 12 11 12 11 10 10 10 9 8 7 5 5 5 5 4 4 4 3 3 4
11 11 11 11 11 11 10 11 11 12 13 14 15 15 15 15 15 15 15 15 15 14 13 13 13 13 13 12 12 12 11 10 9 8 7 7 6 6 5 5 4 4 4
12 12 12 13 13 12 12 12 13 13 14 14 14 15 15 16 16 16 16 16 16 15 15 15 15 15 14 14 13 13 12 11 10 10 9 9 8 8 7 6 6 6 5
14 14 14 14 14 14 13 14 14 14 15 15 15 15 15 16 16 16 16 17 17 16 16 16 16 16 15 15 15 14 13 13 12 12 11 11 11 10 9 8 8 8 8